Time,TemperatureF,DewpointF,PressureIn,WindDirection,WindDirectionDegrees,WindSpeedMPH,WindSpeedGustMPH,Humidity,HourlyPrecipIn,Conditions,Clouds,dailyrainin,SoftwareType,DateUTC
2013-12-22 00:04:00,25.2,24.9,28.62,NE,45,0.0,0.0,99,0.00,,,0.00,WeatherDisplay:10.37,2013-12-22 06:04:00,
2013-12-22 00:09:00,25.2,24.9,28.62,NW,315,0.0,0.0,99,0.00,,,0.00,WeatherDisplay:10.37,2013-12-22 06:09:00,
2013-12-22 00:14:00,25.0,24.7,28.62,NNW,338,0.0,0.0,99,0.00,,,0.00,WeatherDisplay:10.37,2013-12-22 06:14:00,
2013-12-22 00:19:00,25.0,24.7,28.62,South,180,0.0,0.0,99,0.00,,,0.00,WeatherDisplay:10.37,2013-12-22 06:19:00,
2013-12-22 00:24:00,25.0,24.7,28.62,South,180,0.0,0.0,99,0.00,,,0.00,WeatherDisplay:10.37,2013-12-22 06:24:00,
2013-12-22 00:29:00,25.0,24.7,28.63,West,270,0.0,0.0,99,0.00,,,0.00,WeatherDisplay:10.37,2013-12-22 06:29:00,
2013-12-22 00:34:00,25.0,24.7,28.62,West,270,0.0,0.0,99,0.00,,,0.00,WeatherDisplay:10.37,2013-12-22 06:34:00,
2013-12-22 00:39:00,25.0,24.7,28.62,NW,315,0.0,0.0,99,0.00,,,0.00,WeatherDisplay:10.37,2013-12-22 06:39:00,
2013-12-22 00:44:00,25.0,24.7,28.63,NW,315,0.0,0.0,99,0.00,,,0.00,WeatherDisplay:10.37,2013-12-22 06:44:00,
2013-12-22 00:49:00,25.0,24.7,28.63,WSW,248,0.0,0.0,99,0.00,,,0.00,WeatherDisplay:10.37,2013-12-22 06:49:00,
2013-12-22 00:54:00,24.8,24.6,28.64,West,270,0.0,0.0,99,0.00,,,0.00,WeatherDisplay:10.37,2013-12-22 06:54:00,
2013-12-22 00:59:00,24.8,24.6,28.64,West,270,0.0,0.0,99,0.00,,,0.00,WeatherDisplay:10.37,2013-12-22 06:59:00,
2013-12-22 01:04:00,24.8,24.6,28.64,South,180,0.0,0.0,99,0.00,,,0.00,WeatherDisplay:10.37,2013-12-22 07:04:00,
2013-12-22 01:09:00,24.8,24.6,28.65,NW,315,0.0,0.0,99,0.00,,,0.00,WeatherDisplay:10.37,2013-12-22 07:09:00,
2013-12-22 01:14:00,24.8,24.6,28.64,North,0,0.0,0.0,99,0.00,,,0.00,WeatherDisplay:10.37,2013-12-22 07:14:00,
2013-12-22 01:19:00,24.8,24.6,28.64,West,270,0.0,0.0,99,0.00,,,0.00,WeatherDisplay:10.37,2013-12-22 07:19:00,
2013-12-22 01:24:00,24.8,24.6,28.65,NW,315,0.0,0.0,99,0.00,,,0.00,WeatherDisplay:10.37,2013-12-22 07:24:00,
2013-12-22 01:29:00,24.8,24.6,28.65,WNW,292,0.0,0.0,99,0.00,,,0.00,WeatherDisplay:10.37,2013-12-22 07:29:00,
2013-12-22 01:34:00,24.6,24.4,28.65,South,180,0.0,0.0,99,0.00,,,0.00,WeatherDisplay:10.37,2013-12-22 07:34:00,
2013-12-22 01:39:00,24.6,24.4,28.66,NNW,338,0.0,0.0,99,0.00,,,0.00,WeatherDisplay:10.37,2013-12-22 07:39:00,
2013-12-22 01:44:00,24.6,24.4,28.66,SE,135,0.0,0.0,99,0.00,,,0.00,WeatherDisplay:10.37,2013-12-22 07:44:00,
2013-12-22 01:49:00,24.6,24.4,28.67,West,270,0.0,0.0,99,0.00,,,0.00,WeatherDisplay:10.37,2013-12-22 07:49:00,
2013-12-22 01:54:00,24.6,24.4,28.67,SE,135,0.0,0.0,99,0.00,,,0.00,WeatherDisplay:10.37,2013-12-22 07:54:00,
2013-12-22 01:59:00,24.6,24.4,28.67,West,270,0.0,0.0,99,0.00,,,0.00,WeatherDisplay:10.37,2013-12-22 07:59:00,
2013-12-22 02:04:00,24.6,24.4,28.68,West,270,0.0,0.0,99,0.00,,,0.00,WeatherDisplay:10.37,2013-12-22 08:04:00,
2013-12-22 02:09:00,24.4,24.2,28.68,West,270,0.0,0.0,99,0.00,,,0.00,WeatherDisplay:10.37,2013-12-22 08:09:00,
2013-12-22 02:14:00,24.6,24.4,28.68,WSW,248,0.0,0.0,99,0.00,,,0.00,WeatherDisplay:10.37,2013-12-22 08:14:00,
2013-12-22 02:19:00,24.4,24.2,28.68,NE,45,0.0,0.0,99,0.00,,,0.00,WeatherDisplay:10.37,2013-12-22 08:19:00,
2013-12-22 02:24:00,24.4,24.2,28.68,WNW,292,0.0,0.0,99,0.00,,,0.00,WeatherDisplay:10.37,2013-12-22 08:24:00,
2013-12-22 02:29:00,24.4,24.2,28.68,SE,135,0.0,0.0,99,0.00,,,0.00,WeatherDisplay:10.37,2013-12-22 08:29:00,
2013-12-22 02:34:00,24.4,24.2,28.69,SE,135,0.0,0.0,99,0.00,,,0.00,WeatherDisplay:10.37,2013-12-22 08:34:00,
2013-12-22 02:39:00,24.4,24.2,28.69,West,270,0.0,0.0,99,0.00,,,0.00,WeatherDisplay:10.37,2013-12-22 08:39:00,
2013-12-22 02:44:00,24.4,24.2,28.69,West,270,0.0,0.0,99,0.00,,,0.00,WeatherDisplay:10.37,2013-12-22 08:44:00,
2013-12-22 02:49:00,24.4,24.2,28.69,West,270,0.0,0.0,99,0.00,,,0.00,WeatherDisplay:10.37,2013-12-22 08:49:00,
2013-12-22 02:54:00,24.4,24.2,28.69,West,270,0.0,0.0,99,0.00,,,0.00,WeatherDisplay:10.37,2013-12-22 08:54:00,
2013-12-22 02:59:00,24.3,24.0,28.69,West,270,0.0,0.0,99,0.00,,,0.00,WeatherDisplay:10.37,2013-12-22 08:59:00,
2013-12-22 03:04:00,24.3,24.0,28.69,West,270,0.0,0.0,99,0.00,,,0.00,WeatherDisplay:10.37,2013-12-22 09:04:00,
2013-12-22 03:09:00,24.1,23.8,28.69,SW,225,0.0,0.0,99,0.00,,,0.00,WeatherDisplay:10.37,2013-12-22 09:09:00,
2013-12-22 03:14:00,24.1,23.8,28.70,North,0,0.0,0.0,99,0.00,,,0.00,WeatherDisplay:10.37,2013-12-22 09:14:00,
2013-12-22 03:19:00,24.1,23.8,28.69,SW,225,0.0,0.0,99,0.00,,,0.00,WeatherDisplay:10.37,2013-12-22 09:19:00,
2013-12-22 03:24:00,24.1,23.8,28.70,NE,45,0.0,0.0,99,0.00,,,0.00,WeatherDisplay:10.37,2013-12-22 09:24:00,
2013-12-22 03:29:00,24.3,24.0,28.71,South,180,0.0,0.0,99,0.00,,,0.00,WeatherDisplay:10.37,2013-12-22 09:29:00,
2013-12-22 03:34:00,24.3,24.0,28.71,SW,225,0.0,0.0,99,0.00,,,0.00,WeatherDisplay:10.37,2013-12-22 09:34:00,
2013-12-22 03:39:00,24.3,24.0,28.72,West,270,0.0,0.0,99,0.00,,,0.00,WeatherDisplay:10.37,2013-12-22 09:39:00,
2013-12-22 03:44:00,24.3,24.0,28.71,West,270,0.0,0.0,99,0.00,,,0.00,WeatherDisplay:10.37,2013-12-22 09:44:00,
2013-12-22 03:49:00,24.4,24.2,28.72,South,180,0.0,0.0,99,0.00,,,0.00,WeatherDisplay:10.37,2013-12-22 09:49:00,
2013-12-22 03:54:00,24.4,24.2,28.72,NW,315,0.0,0.0,99,0.00,,,0.00,WeatherDisplay:10.37,2013-12-22 09:54:00,
2013-12-22 03:59:00,24.3,24.0,28.72,NW,315,0.0,0.0,99,0.00,,,0.00,WeatherDisplay:10.37,2013-12-22 09:59:00,
2013-12-22 04:04:00,24.3,24.0,28.71,NE,45,0.0,0.0,99,0.00,,,0.00,WeatherDisplay:10.37,2013-12-22 10:04:00,
2013-12-22 04:09:00,23.9,23.7,28.71,North,0,0.0,0.0,99,0.00,,,0.00,WeatherDisplay:10.37,2013-12-22 10:09:00,
2013-12-22 04:14:00,23.7,23.5,28.71,NE,45,0.0,0.0,99,0.00,,,0.00,WeatherDisplay:10.37,2013-12-22 10:14:00,
2013-12-22 04:19:00,23.5,23.3,28.72,South,180,0.0,0.0,99,0.00,,,0.00,WeatherDisplay:10.37,2013-12-22 10:19:00,
2013-12-22 04:24:00,23.2,22.9,28.72,NNW,338,0.0,0.0,99,0.00,,,0.00,WeatherDisplay:10.37,2013-12-22 10:24:00,
2013-12-22 04:29:00,23.0,22.8,28.72,NW,315,0.0,0.0,99,0.00,,,0.00,WeatherDisplay:10.37,2013-12-22 10:29:00,
2013-12-22 04:34:00,22.8,22.6,28.72,West,270,0.0,0.0,99,0.00,,,0.00,WeatherDisplay:10.37,2013-12-22 10:34:00,
2013-12-22 04:39:00,22.8,22.6,28.73,North,0,0.0,0.0,99,0.00,,,0.00,WeatherDisplay:10.37,2013-12-22 10:39:00,
2013-12-22 04:44:00,22.6,22.4,28.73,NW,315,0.0,0.0,99,0.00,,,0.00,WeatherDisplay:10.37,2013-12-22 10:44:00,
2013-12-22 04:49:00,22.6,22.4,28.74,NE,45,0.0,0.0,99,0.00,,,0.00,WeatherDisplay:10.37,2013-12-22 10:49:00,
2013-12-22 04:54:00,22.6,22.4,28.74,West,270,0.0,0.0,99,0.00,,,0.00,WeatherDisplay:10.37,2013-12-22 10:54:00,
2013-12-22 04:59:00,22.6,22.4,28.75,West,270,0.0,0.0,99,0.00,,,0.00,WeatherDisplay:10.37,2013-12-22 10:59:00,
2013-12-22 05:04:00,22.6,22.4,28.75,West,270,0.0,0.0,99,0.00,,,0.00,WeatherDisplay:10.37,2013-12-22 11:04:00,
2013-12-22 05:09:00,22.8,22.6,28.76,West,270,0.0,0.0,99,0.00,,,0.00,WeatherDisplay:10.37,2013-12-22 11:09:00,
2013-12-22 05:14:00,22.6,22.4,28.76,West,270,0.0,0.0,99,0.00,,,0.00,WeatherDisplay:10.37,2013-12-22 11:14:00,
2013-12-22 05:19:00,22.5,22.2,28.76,NE,45,0.0,0.0,99,0.00,,,0.00,WeatherDisplay:10.37,2013-12-22 11:19:00,
2013-12-22 05:24:00,22.3,22.0,28.77,SE,135,0.0,0.0,99,0.00,,,0.00,WeatherDisplay:10.37,2013-12-22 11:24:00,
2013-12-22 05:29:00,22.3,22.0,28.77,West,270,0.0,0.0,99,0.00,,,0.00,WeatherDisplay:10.37,2013-12-22 11:29:00,
2013-12-22 05:34:00,22.1,21.9,28.77,West,270,0.0,0.0,99,0.00,,,0.00,WeatherDisplay:10.37,2013-12-22 11:34:00,
2013-12-22 05:39:00,21.9,21.4,28.78,SE,135,0.0,0.0,98,0.00,CLR,,0.00,WeatherDisplay:10.37,2013-12-22 11:39:00,
2013-12-22 05:44:00,21.7,21.3,28.77,SE,135,0.0,0.0,98,0.00,CLR,,0.00,WeatherDisplay:10.37,2013-12-22 11:44:00,
2013-12-22 05:49:00,21.7,21.3,28.78,NW,315,0.0,0.0,98,0.00,CLR,,0.00,WeatherDisplay:10.37,2013-12-22 11:49:00,
2013-12-22 05:54:00,21.7,21.3,28.78,SE,135,0.0,0.0,98,0.00,CLR,,0.00,WeatherDisplay:10.37,2013-12-22 11:54:00,
2013-12-22 05:59:00,21.6,21.1,28.79,West,270,0.0,0.0,98,0.00,CLR,,0.00,WeatherDisplay:10.37,2013-12-22 11:59:00,
2013-12-22 06:04:00,21.6,21.1,28.80,North,0,0.0,0.0,98,0.00,CLR,,0.00,WeatherDisplay:10.37,2013-12-22 12:04:00,
2013-12-22 06:09:00,21.4,20.9,28.80,West,270,0.0,0.0,98,0.00,CLR,,0.00,WeatherDisplay:10.37,2013-12-22 12:09:00,
2013-12-22 06:14:00,21.6,21.1,28.81,NE,45,0.0,0.0,98,0.00,CLR,,0.00,WeatherDisplay:10.37,2013-12-22 12:14:00,
2013-12-22 06:19:00,21.7,21.3,28.82,NW,315,0.0,0.0,98,0.00,CLR,,0.00,WeatherDisplay:10.37,2013-12-22 12:19:00,
2013-12-22 06:24:00,21.9,21.4,28.82,West,270,0.0,0.0,98,0.00,CLR,,0.00,WeatherDisplay:10.37,2013-12-22 12:24:00,
2013-12-22 06:29:00,21.7,21.3,28.82,South,180,0.0,0.0,98,0.00,CLR,,0.00,WeatherDisplay:10.37,2013-12-22 12:29:00,
2013-12-22 06:34:00,21.9,21.4,28.82,South,180,0.0,0.0,98,0.00,CLR,,0.00,WeatherDisplay:10.37,2013-12-22 12:34:00,
2013-12-22 06:39:00,21.9,21.4,28.82,North,0,0.0,0.0,98,0.00,CLR,,0.00,WeatherDisplay:10.37,2013-12-22 12:39:00,
2013-12-22 06:44:00,22.1,21.6,28.83,NE,45,0.0,0.0,98,0.00,CLR,,0.00,WeatherDisplay:10.37,2013-12-22 12:44:00,
2013-12-22 06:49:00,22.3,21.8,28.84,SE,135,0.0,0.0,98,0.00,CLR,,0.00,WeatherDisplay:10.37,2013-12-22 12:49:00,
2013-12-22 06:54:00,22.5,22.0,28.84,SW,225,0.0,0.0,98,0.00,CLR,,0.00,WeatherDisplay:10.37,2013-12-22 12:54:00,
2013-12-22 06:59:00,22.5,22.0,28.83,North,0,0.0,0.0,98,0.00,CLR,,0.00,WeatherDisplay:10.37,2013-12-22 12:59:00,
2013-12-22 07:04:00,22.5,22.0,28.84,West,270,0.0,0.0,98,0.00,CLR,,0.00,WeatherDisplay:10.37,2013-12-22 13:04:00,
2013-12-22 07:09:00,22.6,22.2,28.83,West,270,0.0,0.0,98,0.00,CLR,,0.00,WeatherDisplay:10.37,2013-12-22 13:09:00,
2013-12-22 07:14:00,22.6,22.2,28.84,South,180,0.0,0.0,98,0.00,CLR,,0.00,WeatherDisplay:10.37,2013-12-22 13:14:00,
2013-12-22 07:19:00,22.8,22.3,28.83,NE,45,0.0,0.0,98,0.00,CLR,,0.00,WeatherDisplay:10.37,2013-12-22 13:19:00,
2013-12-22 07:24:00,22.8,22.3,28.84,SE,135,0.0,0.0,98,0.00,CLR,,0.00,WeatherDisplay:10.37,2013-12-22 13:24:00,
2013-12-22 07:29:00,23.0,22.3,28.84,NW,315,0.0,0.0,97,0.00,CLR,,0.00,WeatherDisplay:10.37,2013-12-22 13:29:00,
2013-12-22 07:34:00,23.0,22.3,28.85,South,180,0.0,0.0,97,0.00,CLR,,0.00,WeatherDisplay:10.37,2013-12-22 13:34:00,
2013-12-22 07:39:00,23.0,22.3,28.85,SE,135,0.0,0.0,97,0.00,CLR,,0.00,WeatherDisplay:10.37,2013-12-22 13:39:00,
2013-12-22 07:44:00,23.0,22.3,28.84,West,270,0.0,0.0,97,0.00,CLR,,0.00,WeatherDisplay:10.37,2013-12-22 13:44:00,
2013-12-22 07:49:00,23.2,22.5,28.86,West,270,0.0,0.0,97,0.00,CLR,,0.00,WeatherDisplay:10.37,2013-12-22 13:49:00,
2013-12-22 07:54:00,23.2,22.5,28.85,SW,225,0.0,0.0,97,0.00,CLR,,0.00,WeatherDisplay:10.37,2013-12-22 13:54:00,
2013-12-22 07:59:00,23.2,22.5,28.85,West,270,0.0,0.0,97,0.00,CLR,,0.00,WeatherDisplay:10.37,2013-12-22 13:59:00,
2013-12-22 08:04:00,23.2,22.5,28.85,South,180,0.0,0.0,97,0.00,CLR,,0.00,WeatherDisplay:10.37,2013-12-22 14:04:00,
2013-12-22 08:09:00,23.4,22.6,28.86,SE,135,0.0,0.0,97,0.00,CLR,,0.00,WeatherDisplay:10.37,2013-12-22 14:09:00,
2013-12-22 08:14:00,23.5,22.6,28.86,WNW,292,0.0,0.0,96,0.00,CLR,,0.00,WeatherDisplay:10.37,2013-12-22 14:14:00,
2013-12-22 08:19:00,23.7,22.7,28.86,North,0,0.0,0.0,96,0.00,CLR,,0.00,WeatherDisplay:10.37,2013-12-22 14:19:00,
2013-12-22 08:24:00,23.9,22.9,28.86,SE,135,0.0,0.0,96,0.00,CLR,,0.00,WeatherDisplay:10.37,2013-12-22 14:24:00,
2013-12-22 08:29:00,24.1,23.1,28.87,NNW,338,0.0,0.0,96,0.00,CLR,,0.00,WeatherDisplay:10.37,2013-12-22 14:29:00,
2013-12-22 08:34:00,24.3,23.3,28.87,SE,135,0.0,0.0,96,0.00,CLR,,0.00,WeatherDisplay:10.37,2013-12-22 14:34:00,
2013-12-22 08:39:00,24.4,23.5,28.87,NW,315,0.0,0.0,96,0.00,CLR,,0.00,WeatherDisplay:10.37,2013-12-22 14:39:00,
2013-12-22 08:44:00,24.4,23.5,28.88,NW,315,0.0,0.0,96,0.00,CLR,,0.00,WeatherDisplay:10.37,2013-12-22 14:44:00,
2013-12-22 08:49:00,24.6,23.6,28.89,NE,45,0.0,0.0,96,0.00,CLR,,0.00,WeatherDisplay:10.37,2013-12-22 14:49:00,
2013-12-22 08:54:00,24.8,23.6,28.89,NW,315,0.0,0.0,95,0.00,CLR,,0.00,WeatherDisplay:10.37,2013-12-22 14:54:00,
2013-12-22 08:59:00,24.8,23.6,28.89,West,270,0.0,0.0,95,0.00,CLR,,0.00,WeatherDisplay:10.37,2013-12-22 14:59:00,
2013-12-22 09:04:00,24.8,23.6,28.89,SE,135,0.0,0.0,95,0.00,CLR,,0.00,WeatherDisplay:10.37,2013-12-22 15:04:00,
2013-12-22 09:09:00,25.2,23.9,28.90,SE,135,0.0,0.0,95,0.00,CLR,,0.00,WeatherDisplay:10.37,2013-12-22 15:09:00,
2013-12-22 09:14:00,25.2,23.9,28.90,West,270,0.0,0.0,95,0.00,CLR,,0.00,WeatherDisplay:10.37,2013-12-22 15:14:00,
2013-12-22 09:19:00,25.2,23.7,28.90,West,270,0.0,0.0,94,0.00,CLR,,0.00,WeatherDisplay:10.37,2013-12-22 15:19:00,
2013-12-22 09:24:00,25.0,23.5,28.91,West,270,0.0,0.0,94,0.00,CLR,,0.00,WeatherDisplay:10.37,2013-12-22 15:24:00,
2013-12-22 09:29:00,24.8,23.1,28.92,West,270,0.0,0.0,93,0.00,CLR,,0.00,WeatherDisplay:10.37,2013-12-22 15:29:00,
2013-12-22 09:34:00,25.0,23.2,28.92,NW,315,0.0,0.0,93,0.00,CLR,,0.00,WeatherDisplay:10.37,2013-12-22 15:34:00,
2013-12-22 09:39:00,25.0,23.2,28.93,North,0,0.0,0.0,93,0.00,CLR,,0.00,WeatherDisplay:10.37,2013-12-22 15:39:00,
2013-12-22 09:44:00,25.2,23.4,28.93,NNW,338,0.0,0.0,93,0.00,CLR,,0.00,WeatherDisplay:10.37,2013-12-22 15:44:00,
2013-12-22 09:49:00,25.3,23.3,28.94,NW,315,0.0,0.0,92,0.00,CLR,,0.00,WeatherDisplay:10.37,2013-12-22 15:49:00,
2013-12-22 09:54:00,25.3,23.3,28.94,NW,315,0.0,0.0,92,0.00,CLR,,0.00,WeatherDisplay:10.37,2013-12-22 15:54:00,
2013-12-22 09:59:00,25.7,23.7,28.94,North,0,0.0,0.0,92,0.00,CLR,,0.00,WeatherDisplay:10.37,2013-12-22 15:59:00,
2013-12-22 10:04:00,25.7,23.7,28.94,West,270,0.0,0.0,92,0.00,CLR,,0.00,WeatherDisplay:10.37,2013-12-22 16:04:00,
2013-12-22 10:09:00,26.1,24.1,28.95,SW,225,0.0,0.0,92,0.00,CLR,,0.00,WeatherDisplay:10.37,2013-12-22 16:09:00,
2013-12-22 10:14:00,26.4,24.4,28.95,SE,135,0.0,0.0,92,0.00,CLR,,0.00,WeatherDisplay:10.37,2013-12-22 16:14:00,
2013-12-22 10:19:00,26.1,23.8,28.96,NW,315,0.0,0.0,91,0.00,CLR,,0.00,WeatherDisplay:10.37,2013-12-22 16:19:00,
2013-12-22 10:24:00,26.1,23.8,28.96,South,180,0.0,0.0,91,0.00,CLR,,0.00,WeatherDisplay:10.37,2013-12-22 16:24:00,
2013-12-22 10:29:00,26.2,24.0,28.96,NE,45,0.0,0.0,91,0.00,CLR,,0.00,WeatherDisplay:10.37,2013-12-22 16:29:00,
2013-12-22 10:34:00,26.2,23.7,28.96,West,270,0.0,0.0,90,0.00,CLR,,0.00,WeatherDisplay:10.37,2013-12-22 16:34:00,
2013-12-22 10:39:00,26.4,23.9,28.96,SE,135,0.0,0.0,90,0.00,CLR,,0.00,WeatherDisplay:10.37,2013-12-22 16:39:00,
2013-12-22 10:44:00,26.6,24.1,28.97,SW,225,0.0,0.0,90,0.00,CLR,,0.00,WeatherDisplay:10.37,2013-12-22 16:44:00,
2013-12-22 10:49:00,26.6,24.1,28.97,North,0,0.0,0.0,90,0.00,CLR,,0.00,WeatherDisplay:10.37,2013-12-22 16:49:00,
2013-12-22 10:54:00,26.6,24.1,28.98,West,270,0.0,0.0,90,0.00,CLR,,0.00,WeatherDisplay:10.37,2013-12-22 16:54:00,
2013-12-22 10:59:00,26.8,24.2,28.98,NE,45,0.0,0.0,90,0.00,CLR,,0.00,WeatherDisplay:10.37,2013-12-22 16:59:00,
2013-12-22 11:04:00,26.8,24.2,28.98,SW,225,0.0,0.0,90,0.00,CLR,,0.00,WeatherDisplay:10.37,2013-12-22 17:04:00,
2013-12-22 11:09:00,26.8,24.2,28.98,South,180,0.0,0.0,90,0.00,CLR,,0.00,WeatherDisplay:10.37,2013-12-22 17:09:00,
2013-12-22 11:14:00,26.8,24.0,28.98,West,270,0.0,0.0,89,0.00,CLR,,0.00,WeatherDisplay:10.37,2013-12-22 17:14:00,
2013-12-22 11:19:00,26.8,24.0,28.98,West,270,0.0,0.0,89,0.00,CLR,,0.00,WeatherDisplay:10.37,2013-12-22 17:19:00,
2013-12-22 11:24:00,26.8,24.0,28.98,SE,135,0.0,0.0,89,0.00,CLR,,0.00,WeatherDisplay:10.37,2013-12-22 17:24:00,
2013-12-22 11:29:00,27.1,24.3,28.98,North,0,0.0,0.0,89,0.00,CLR,,0.00,WeatherDisplay:10.37,2013-12-22 17:29:00,
2013-12-22 11:34:00,27.5,24.7,28.98,NNW,338,0.0,0.0,89,0.00,CLR,,0.00,WeatherDisplay:10.37,2013-12-22 17:34:00,
2013-12-22 11:39:00,27.9,25.0,28.98,West,270,0.0,0.0,89,0.00,CLR,,0.00,WeatherDisplay:10.37,2013-12-22 17:39:00,
2013-12-22 11:44:00,27.9,24.8,28.98,North,0,0.0,0.0,88,0.00,CLR,,0.00,WeatherDisplay:10.37,2013-12-22 17:44:00,
2013-12-22 11:49:00,27.7,24.3,28.98,South,180,0.0,0.0,87,0.00,CLR,,0.00,WeatherDisplay:10.37,2013-12-22 17:49:00,
2013-12-22 11:54:00,28.2,25.1,28.98,SE,135,0.0,0.0,88,0.00,CLR,,0.00,WeatherDisplay:10.37,2013-12-22 17:54:00,
2013-12-22 11:59:00,28.2,24.8,28.98,SE,135,0.0,0.0,87,0.00,CLR,,0.00,WeatherDisplay:10.37,2013-12-22 17:59:00,
2013-12-22 12:04:00,28.0,24.7,28.98,SW,225,0.0,0.0,87,0.00,CLR,,0.00,WeatherDisplay:10.37,2013-12-22 18:04:00,
2013-12-22 12:09:00,28.6,25.2,28.98,NE,45,0.0,0.0,87,0.00,CLR,,0.00,WeatherDisplay:10.37,2013-12-22 18:09:00,
2013-12-22 12:14:00,28.8,25.1,28.98,West,270,0.0,0.0,86,0.00,CLR,,0.00,WeatherDisplay:10.37,2013-12-22 18:14:00,
2013-12-22 12:19:00,28.6,24.9,28.98,SE,135,0.0,0.0,86,0.00,CLR,,0.00,WeatherDisplay:10.37,2013-12-22 18:19:00,
2013-12-22 12:24:00,28.9,25.0,28.98,NE,45,0.0,0.0,85,0.00,CLR,,0.00,WeatherDisplay:10.37,2013-12-22 18:24:00,
2013-12-22 12:29:00,29.7,25.7,28.98,South,180,0.0,0.0,85,0.00,CLR,,0.00,WeatherDisplay:10.37,2013-12-22 18:29:00,
2013-12-22 12:34:00,29.8,25.3,28.98,NW,315,0.0,0.0,83,0.00,CLR,,0.00,WeatherDisplay:10.37,2013-12-22 18:34:00,
2013-12-22 12:39:00,29.8,25.3,28.98,SE,135,0.0,0.0,83,0.00,CLR,,0.00,WeatherDisplay:10.37,2013-12-22 18:39:00,
2013-12-22 12:44:00,29.7,25.1,28.98,NE,45,0.0,0.0,83,0.00,CLR,,0.00,WeatherDisplay:10.37,2013-12-22 18:44:00,
2013-12-22 12:49:00,29.8,25.3,28.98,West,270,0.0,0.0,83,0.00,CLR,,0.00,WeatherDisplay:10.37,2013-12-22 18:49:00,
2013-12-22 12:54:00,29.8,25.3,28.98,South,180,0.0,0.0,83,0.00,CLR,,0.00,WeatherDisplay:10.37,2013-12-22 18:54:00,
2013-12-22 12:59:00,30.0,25.5,28.98,SW,225,0.0,0.0,83,0.00,CLR,,0.00,WeatherDisplay:10.37,2013-12-22 18:59:00,
2013-12-22 13:04:00,30.2,25.7,28.98,South,180,0.0,0.0,83,0.00,CLR,,0.00,WeatherDisplay:10.37,2013-12-22 19:04:00,
2013-12-22 13:09:00,30.2,25.1,28.98,North,0,0.0,0.0,81,0.00,CLR,,0.00,WeatherDisplay:10.37,2013-12-22 19:09:00,
2013-12-22 13:14:00,30.7,25.6,28.98,NW,315,0.0,0.0,81,0.00,CLR,,0.00,WeatherDisplay:10.37,2013-12-22 19:14:00,
2013-12-22 13:19:00,30.2,24.5,28.98,NE,45,0.0,0.0,79,0.00,CLR,,0.00,WeatherDisplay:10.37,2013-12-22 19:19:00,
2013-12-22 13:24:00,30.6,25.1,28.98,NNE,22,0.0,0.0,80,0.00,CLR,,0.00,WeatherDisplay:10.37,2013-12-22 19:24:00,
2013-12-22 13:29:00,30.6,25.1,28.98,SE,135,0.0,0.0,80,0.00,CLR,,0.00,WeatherDisplay:10.37,2013-12-22 19:29:00,
2013-12-22 13:34:00,30.4,24.9,28.98,NE,45,0.0,0.0,80,0.00,CLR,,0.00,WeatherDisplay:10.37,2013-12-22 19:34:00,
2013-12-22 13:39:00,29.7,23.9,28.98,West,270,0.0,0.0,79,0.00,CLR,,0.00,WeatherDisplay:10.37,2013-12-22 19:39:00,
2013-12-22 13:44:00,29.7,24.2,28.98,SE,135,0.0,0.0,80,0.00,CLR,,0.00,WeatherDisplay:10.37,2013-12-22 19:44:00,
2013-12-22 13:49:00,29.3,23.9,28.98,NW,315,0.0,0.0,80,0.00,CLR,,0.00,WeatherDisplay:10.37,2013-12-22 19:49:00,
2013-12-22 13:54:00,29.3,23.9,28.98,NE,45,0.0,0.0,80,0.00,CLR,,0.00,WeatherDisplay:10.37,2013-12-22 19:54:00,
2013-12-22 13:59:00,30.0,24.6,28.98,SE,135,0.0,0.0,80,0.00,CLR,,0.00,WeatherDisplay:10.37,2013-12-22 19:59:00,
2013-12-22 14:04:00,30.2,24.8,28.98,NE,45,0.0,0.0,80,0.00,CLR,,0.00,WeatherDisplay:10.37,2013-12-22 20:04:00,
2013-12-22 14:09:00,31.3,25.2,28.98,NNW,338,0.0,0.0,78,0.00,CLR,,0.00,WeatherDisplay:10.37,2013-12-22 20:09:00,
2013-12-22 14:14:00,30.2,23.9,28.98,West,270,0.0,0.0,77,0.00,CLR,,0.00,WeatherDisplay:10.37,2013-12-22 20:14:00,
2013-12-22 14:19:00,29.5,23.5,28.99,NW,315,0.0,0.0,78,0.00,CLR,,0.00,WeatherDisplay:10.37,2013-12-22 20:19:00,
2013-12-22 14:24:00,29.5,23.5,28.99,SE,135,0.0,0.0,78,0.00,CLR,,0.00,WeatherDisplay:10.37,2013-12-22 20:24:00,
2013-12-22 14:29:00,30.0,24.0,28.99,NW,315,0.0,0.0,78,0.00,CLR,,0.00,WeatherDisplay:10.37,2013-12-22 20:29:00,
2013-12-22 14:34:00,29.8,23.5,28.99,WNW,292,0.0,0.0,77,0.00,CLR,,0.00,WeatherDisplay:10.37,2013-12-22 20:34:00,
2013-12-22 14:39:00,29.7,23.0,28.99,NE,45,0.0,0.0,76,0.00,CLR,,0.00,WeatherDisplay:10.37,2013-12-22 20:39:00,
2013-12-22 14:44:00,29.7,23.0,29.00,NE,45,0.0,0.0,76,0.00,CLR,,0.00,WeatherDisplay:10.37,2013-12-22 20:44:00,
2013-12-22 14:49:00,29.7,23.0,29.00,West,270,0.0,0.0,76,0.00,CLR,,0.00,WeatherDisplay:10.37,2013-12-22 20:49:00,
2013-12-22 14:54:00,29.7,22.7,29.00,South,180,0.0,0.0,75,0.00,CLR,,0.00,WeatherDisplay:10.37,2013-12-22 20:54:00,
2013-12-22 14:59:00,30.2,23.5,29.00,SE,135,0.0,0.0,76,0.00,CLR,,0.00,WeatherDisplay:10.37,2013-12-22 20:59:00,
2013-12-22 15:04:00,29.8,22.6,29.00,SE,135,0.0,0.0,74,0.00,CLR,,0.00,WeatherDisplay:10.37,2013-12-22 21:04:00,
2013-12-22 15:09:00,28.8,21.5,29.00,NE,45,0.0,0.0,74,0.00,CLR,,0.00,WeatherDisplay:10.37,2013-12-22 21:09:00,
2013-12-22 15:14:00,27.9,21.0,29.01,South,180,0.0,0.0,75,0.00,CLR,,0.00,WeatherDisplay:10.37,2013-12-22 21:14:00,
2013-12-22 15:19:00,27.9,21.3,29.01,West,270,0.0,0.0,76,0.00,CLR,,0.00,WeatherDisplay:10.37,2013-12-22 21:19:00,
2013-12-22 15:24:00,28.8,22.5,29.01,WSW,248,0.0,0.0,77,0.00,CLR,,0.00,WeatherDisplay:10.37,2013-12-22 21:24:00,
2013-12-22 15:29:00,29.1,22.5,29.01,NW,315,0.0,0.0,76,0.00,CLR,,0.00,WeatherDisplay:10.37,2013-12-22 21:29:00,
2013-12-22 15:34:00,28.8,21.8,29.02,West,270,0.0,0.0,75,0.00,CLR,,0.00,WeatherDisplay:10.37,2013-12-22 21:34:00,
2013-12-22 15:39:00,28.6,22.0,29.02,NW,315,0.0,0.0,76,0.00,CLR,,0.00,WeatherDisplay:10.37,2013-12-22 21:39:00,
2013-12-22 15:44:00,28.9,22.3,29.02,North,0,0.0,0.0,76,0.00,CLR,,0.00,WeatherDisplay:10.37,2013-12-22 21:44:00,
2013-12-22 15:49:00,28.9,22.3,29.03,North,0,0.0,0.0,76,0.00,CLR,,0.00,WeatherDisplay:10.37,2013-12-22 21:49:00,
2013-12-22 15:54:00,29.1,22.5,29.03,NE,45,0.0,0.0,76,0.00,CLR,,0.00,WeatherDisplay:10.37,2013-12-22 21:54:00,
2013-12-22 15:59:00,29.5,22.5,29.03,NE,45,0.0,0.0,75,0.00,CLR,,0.00,WeatherDisplay:10.37,2013-12-22 21:59:00,
2013-12-22 16:04:00,29.5,22.5,29.04,NE,45,0.0,0.0,75,0.00,CLR,,0.00,WeatherDisplay:10.37,2013-12-22 22:04:00,
2013-12-22 16:09:00,29.1,21.9,29.04,West,270,0.0,0.0,74,0.00,CLR,,0.00,WeatherDisplay:10.37,2013-12-22 22:09:00,
2013-12-22 16:14:00,28.6,21.3,29.04,West,270,0.0,0.0,74,0.00,CLR,,0.00,WeatherDisplay:10.37,2013-12-22 22:14:00,
2013-12-22 16:19:00,28.2,21.0,29.04,NW,315,0.0,0.0,74,0.00,CLR,,0.00,WeatherDisplay:10.37,2013-12-22 22:19:00,
2013-12-22 16:24:00,27.9,21.0,29.05,West,270,0.0,0.0,75,0.00,CLR,,0.00,WeatherDisplay:10.37,2013-12-22 22:24:00,
2013-12-22 16:29:00,27.5,20.6,29.05,SE,135,0.0,0.0,75,0.00,CLR,,0.00,WeatherDisplay:10.37,2013-12-22 22:29:00,
2013-12-22 16:34:00,27.0,20.4,29.05,SE,135,0.0,0.0,76,0.00,CLR,,0.00,WeatherDisplay:10.37,2013-12-22 22:34:00,
2013-12-22 16:39:00,26.2,20.0,29.05,SE,135,0.0,0.0,77,0.00,CLR,,0.00,WeatherDisplay:10.37,2013-12-22 22:39:00,
2013-12-22 16:44:00,25.7,19.5,29.06,SE,135,0.0,0.0,77,0.00,CLR,,0.00,WeatherDisplay:10.37,2013-12-22 22:44:00,
2013-12-22 16:49:00,25.3,19.4,29.06,SE,135,0.0,0.0,78,0.00,CLR,,0.00,WeatherDisplay:10.37,2013-12-22 22:49:00,
2013-12-22 16:54:00,24.8,18.9,29.06,South,180,0.0,0.0,78,0.00,CLR,,0.00,WeatherDisplay:10.37,2013-12-22 22:54:00,
2013-12-22 16:59:00,24.6,19.0,29.06,West,270,0.0,0.0,79,0.00,CLR,,0.00,WeatherDisplay:10.37,2013-12-22 22:59:00,
2013-12-22 17:04:00,24.6,19.0,29.07,West,270,0.0,0.0,79,0.00,CLR,,0.00,WeatherDisplay:10.37,2013-12-22 23:04:00,
2013-12-22 17:09:00,24.1,18.5,29.08,SE,135,0.0,0.0,79,0.00,CLR,,0.00,WeatherDisplay:10.37,2013-12-22 23:09:00,
2013-12-22 17:14:00,23.9,18.6,29.08,North,0,0.0,0.0,80,0.00,CLR,,0.00,WeatherDisplay:10.37,2013-12-22 23:14:00,
2013-12-22 17:19:00,23.7,18.5,29.08,South,180,0.0,0.0,80,0.00,CLR,,0.00,WeatherDisplay:10.37,2013-12-22 23:19:00,
2013-12-22 17:24:00,23.4,18.1,29.07,South,180,0.0,0.0,80,0.00,CLR,,0.00,WeatherDisplay:10.37,2013-12-22 23:24:00,
2013-12-22 17:29:00,23.0,17.7,29.08,North,0,0.0,0.0,80,0.00,CLR,,0.00,WeatherDisplay:10.37,2013-12-22 23:29:00,
2013-12-22 17:34:00,22.6,17.7,29.08,West,270,0.0,0.0,81,0.00,CLR,,0.00,WeatherDisplay:10.37,2013-12-22 23:34:00,
2013-12-22 17:39:00,22.3,17.3,29.09,SE,135,0.0,0.0,81,0.00,CLR,,0.00,WeatherDisplay:10.37,2013-12-22 23:39:00,
2013-12-22 17:44:00,22.1,17.2,29.08,West,270,0.0,0.0,81,0.00,CLR,,0.00,WeatherDisplay:10.37,2013-12-22 23:44:00,
2013-12-22 17:49:00,21.9,17.3,29.09,North,7,0.0,0.0,82,0.00,CLR,,0.00,WeatherDisplay:10.37,2013-12-22 23:49:00,
2013-12-22 17:54:00,21.7,17.1,29.09,South,180,0.0,0.0,82,0.00,CLR,,0.00,WeatherDisplay:10.37,2013-12-22 23:54:00,
2013-12-22 17:59:00,21.6,16.9,29.09,North,0,0.0,0.0,82,0.00,CLR,,0.00,WeatherDisplay:10.37,2013-12-22 23:59:00,
2013-12-22 18:04:00,21.6,16.9,29.09,SW,225,0.0,0.0,82,0.00,CLR,,0.00,WeatherDisplay:10.37,2013-12-23 00:04:00,
2013-12-22 18:09:00,21.2,16.8,29.10,SE,135,0.0,0.0,83,0.00,CLR,,0.00,WeatherDisplay:10.37,2013-12-23 00:09:00,
2013-12-22 18:14:00,21.0,16.7,29.10,West,270,0.0,0.0,83,0.00,CLR,,0.00,WeatherDisplay:10.37,2013-12-23 00:14:00,
2013-12-22 18:19:00,20.8,16.5,29.10,SE,135,0.0,0.0,83,0.00,CLR,,0.00,WeatherDisplay:10.37,2013-12-23 00:19:00,
2013-12-22 18:24:00,20.7,16.3,29.10,South,180,0.0,0.0,83,0.00,CLR,,0.00,WeatherDisplay:10.37,2013-12-23 00:24:00,
2013-12-22 18:29:00,20.3,16.0,29.11,SW,225,0.0,0.0,83,0.00,CLR,,0.00,WeatherDisplay:10.37,2013-12-23 00:29:00,
2013-12-22 18:34:00,19.9,15.6,29.11,NNE,16,0.0,0.0,83,0.00,CLR,,0.00,WeatherDisplay:10.37,2013-12-23 00:34:00,
2013-12-22 18:39:00,19.4,15.4,29.11,North,0,0.0,0.0,84,0.00,CLR,,0.00,WeatherDisplay:10.37,2013-12-23 00:39:00,
2013-12-22 18:44:00,19.0,15.0,29.11,North,0,0.0,0.0,84,0.00,CLR,,0.00,WeatherDisplay:10.37,2013-12-23 00:44:00,
2013-12-22 18:49:00,18.7,14.6,29.11,North,0,0.0,0.0,84,0.00,CLR,,0.00,WeatherDisplay:10.37,2013-12-23 00:49:00,
2013-12-22 18:54:00,18.3,14.3,29.11,North,0,0.0,0.0,84,0.00,CLR,,0.00,WeatherDisplay:10.37,2013-12-23 00:54:00,
2013-12-22 18:59:00,18.0,13.9,29.11,SW,225,0.0,0.0,84,0.00,CLR,,0.00,WeatherDisplay:10.37,2013-12-23 00:59:00,
2013-12-22 19:04:00,18.0,13.9,29.11,SW,225,0.0,0.0,84,0.00,CLR,,0.00,WeatherDisplay:10.37,2013-12-23 01:04:00,
2013-12-22 19:09:00,17.4,13.7,29.11,North,10,0.0,0.0,85,0.00,CLR,,0.00,WeatherDisplay:10.37,2013-12-23 01:09:00,
2013-12-22 19:14:00,17.2,13.5,29.12,West,270,0.0,0.0,85,0.00,CLR,,0.00,WeatherDisplay:10.37,2013-12-23 01:14:00,
2013-12-22 19:19:00,17.1,13.3,29.12,West,270,0.0,0.0,85,0.00,CLR,,0.00,WeatherDisplay:10.37,2013-12-23 01:19:00,
2013-12-22 19:24:00,17.1,13.6,29.12,West,270,0.0,0.0,86,0.00,CLR,,0.00,WeatherDisplay:10.37,2013-12-23 01:24:00,
2013-12-22 19:29:00,16.7,13.2,29.12,West,270,0.0,0.0,86,0.00,CLR,,0.00,WeatherDisplay:10.37,2013-12-23 01:29:00,
2013-12-22 19:34:00,16.3,12.9,29.13,West,270,0.0,0.0,86,0.00,CLR,,0.00,WeatherDisplay:10.37,2013-12-23 01:34:00,
2013-12-22 19:39:00,16.0,12.5,29.12,West,270,0.0,0.0,86,0.00,CLR,,0.00,WeatherDisplay:10.37,2013-12-23 01:39:00,
2013-12-22 19:44:00,15.8,12.6,29.12,West,270,0.0,0.0,87,0.00,CLR,,0.00,WeatherDisplay:10.37,2013-12-23 01:44:00,
2013-12-22 19:49:00,15.8,12.6,29.13,West,270,0.0,0.0,87,0.00,CLR,,0.00,WeatherDisplay:10.37,2013-12-23 01:49:00,
2013-12-22 19:54:00,15.6,12.4,29.13,West,270,0.0,0.0,87,0.00,CLR,,0.00,WeatherDisplay:10.37,2013-12-23 01:54:00,
2013-12-22 19:59:00,15.4,12.3,29.12,West,270,0.0,0.0,87,0.00,CLR,,0.00,WeatherDisplay:10.37,2013-12-23 01:59:00,
2013-12-22 20:04:00,15.4,12.3,29.13,West,270,0.0,0.0,87,0.00,CLR,,0.00,WeatherDisplay:10.37,2013-12-23 02:04:00,
2013-12-22 20:09:00,15.1,12.2,29.13,West,270,0.0,0.0,88,0.00,CLR,,0.00,WeatherDisplay:10.37,2013-12-23 02:09:00,
2013-12-22 20:14:00,14.9,12.0,29.13,West,270,0.0,0.0,88,0.00,CLR,,0.00,WeatherDisplay:10.37,2013-12-23 02:14:00,
2013-12-22 20:19:00,14.7,11.8,29.14,West,270,0.0,0.0,88,0.00,CLR,,0.00,WeatherDisplay:10.37,2013-12-23 02:19:00,
2013-12-22 20:24:00,14.5,11.6,29.13,West,270,0.0,0.0,88,0.00,CLR,,0.00,WeatherDisplay:10.37,2013-12-23 02:24:00,
2013-12-22 20:29:00,14.4,11.7,29.13,West,270,0.0,0.0,89,0.00,CLR,,0.00,WeatherDisplay:10.37,2013-12-23 02:29:00,
2013-12-22 20:34:00,14.2,11.5,29.14,West,270,0.0,0.0,89,0.00,CLR,,0.00,WeatherDisplay:10.37,2013-12-23 02:34:00,
2013-12-22 20:39:00,14.0,11.4,29.14,West,270,0.0,0.0,89,0.00,CLR,,0.00,WeatherDisplay:10.37,2013-12-23 02:39:00,
2013-12-22 20:44:00,14.0,11.4,29.15,South,180,0.0,0.0,89,0.00,CLR,,0.00,WeatherDisplay:10.37,2013-12-23 02:44:00,
2013-12-22 20:49:00,14.0,11.4,29.15,South,180,0.0,0.0,89,0.00,CLR,,0.00,WeatherDisplay:10.37,2013-12-23 02:49:00,
2013-12-22 20:54:00,14.0,11.4,29.16,South,180,0.0,0.0,89,0.00,CLR,,0.00,WeatherDisplay:10.37,2013-12-23 02:54:00,
2013-12-22 20:59:00,13.8,11.2,29.16,South,180,0.0,0.0,89,0.00,CLR,,0.00,WeatherDisplay:10.37,2013-12-23 02:59:00,
2013-12-22 21:04:00,13.8,11.2,29.16,South,180,0.0,0.0,89,0.00,CLR,,0.00,WeatherDisplay:10.37,2013-12-23 03:04:00,
2013-12-22 21:09:00,13.5,11.1,29.17,NW,315,0.0,0.0,90,0.00,CLR,,0.00,WeatherDisplay:10.37,2013-12-23 03:09:00,
2013-12-22 21:14:00,13.5,11.1,29.17,NW,315,0.0,0.0,90,0.00,CLR,,0.00,WeatherDisplay:10.37,2013-12-23 03:14:00,
2013-12-22 21:19:00,13.3,10.9,29.18,NW,315,0.0,0.0,90,0.00,CLR,,0.00,WeatherDisplay:10.37,2013-12-23 03:19:00,
2013-12-22 21:24:00,12.9,10.5,29.18,NW,315,0.0,0.0,90,0.00,CLR,,0.00,WeatherDisplay:10.37,2013-12-23 03:24:00,
2013-12-22 21:29:00,12.7,10.4,29.18,NW,315,0.0,0.0,90,0.00,CLR,,0.00,WeatherDisplay:10.37,2013-12-23 03:29:00,
2013-12-22 21:34:00,12.6,10.2,29.18,West,270,0.0,0.0,90,0.00,CLR,,0.00,WeatherDisplay:10.37,2013-12-23 03:34:00,
2013-12-22 21:39:00,12.4,10.0,29.18,West,270,0.0,0.0,90,0.00,CLR,,0.00,WeatherDisplay:10.37,2013-12-23 03:39:00,
2013-12-22 21:44:00,12.2,9.8,29.18,West,270,0.0,0.0,90,0.00,CLR,,0.00,WeatherDisplay:10.37,2013-12-23 03:44:00,
2013-12-22 21:49:00,12.0,9.7,29.18,West,270,0.0,0.0,90,0.00,CLR,,0.00,WeatherDisplay:10.37,2013-12-23 03:49:00,
2013-12-22 21:54:00,12.0,9.9,29.18,West,270,0.0,0.0,91,0.00,CLR,,0.00,WeatherDisplay:10.37,2013-12-23 03:54:00,
2013-12-22 21:59:00,12.0,9.9,29.19,West,270,0.0,0.0,91,0.00,CLR,,0.00,WeatherDisplay:10.37,2013-12-23 03:59:00,
2013-12-22 22:04:00,12.0,9.9,29.19,North,1,0.0,0.0,91,0.00,CLR,,0.00,WeatherDisplay:10.37,2013-12-23 04:04:00,
2013-12-22 22:09:00,11.7,9.5,29.19,North,0,0.0,0.0,91,0.00,CLR,,0.00,WeatherDisplay:10.37,2013-12-23 04:09:00,
2013-12-22 22:14:00,11.7,9.5,29.19,West,270,0.0,0.0,91,0.00,CLR,,0.00,WeatherDisplay:10.37,2013-12-23 04:14:00,
2013-12-22 22:19:00,11.8,9.7,29.19,West,270,0.0,0.0,91,0.00,CLR,,0.00,WeatherDisplay:10.37,2013-12-23 04:19:00,
2013-12-22 22:24:00,11.8,9.7,29.20,West,270,0.0,0.0,91,0.00,CLR,,0.00,WeatherDisplay:10.37,2013-12-23 04:24:00,
2013-12-22 22:29:00,11.8,9.7,29.19,West,270,0.0,0.0,91,0.00,CLR,,0.00,WeatherDisplay:10.37,2013-12-23 04:29:00,
2013-12-22 22:34:00,11.7,9.5,29.20,West,270,0.0,0.0,91,0.00,CLR,,0.00,WeatherDisplay:10.37,2013-12-23 04:34:00,
2013-12-22 22:39:00,11.5,9.4,29.20,West,270,0.0,0.0,91,0.00,CLR,,0.00,WeatherDisplay:10.37,2013-12-23 04:39:00,
2013-12-22 22:44:00,11.3,9.2,29.20,West,270,0.0,0.0,91,0.00,CLR,,0.00,WeatherDisplay:10.37,2013-12-23 04:44:00,
2013-12-22 22:49:00,11.3,9.2,29.21,West,270,0.0,0.0,91,0.00,CLR,,0.00,WeatherDisplay:10.37,2013-12-23 04:49:00,
2013-12-22 22:54:00,11.3,9.2,29.21,West,270,0.0,0.0,91,0.00,CLR,,0.00,WeatherDisplay:10.37,2013-12-23 04:54:00,
2013-12-22 22:59:00,11.1,9.0,29.21,West,270,0.0,0.0,91,0.00,CLR,,0.00,WeatherDisplay:10.37,2013-12-23 04:59:00,
2013-12-22 23:01:00,11.1,9.0,29.21,West,270,0.0,0.0,91,0.00,CLR,,0.00,WeatherDisplay:10.37,2013-12-23 05:01:00,
2013-12-22 23:02:00,11.1,9.0,29.21,West,270,0.0,0.0,91,0.00,CLR,,0.00,WeatherDisplay:10.37,2013-12-23 05:02:00,
2013-12-22 23:03:00,11.1,9.0,29.21,West,270,0.0,0.0,91,0.00,CLR,,0.00,WeatherDisplay:10.37,2013-12-23 05:03:00,
2013-12-22 23:08:00,10.8,8.7,29.21,West,270,0.0,0.0,91,0.00,CLR,,0.00,WeatherDisplay:10.37,2013-12-23 05:08:00,
2013-12-22 23:13:00,10.8,8.7,29.20,West,270,0.0,0.0,91,0.00,CLR,,0.00,WeatherDisplay:10.37,2013-12-23 05:13:00,
2013-12-22 23:18:00,10.6,8.5,29.20,West,270,0.0,0.0,91,0.00,CLR,,0.00,WeatherDisplay:10.37,2013-12-23 05:18:00,
2013-12-22 23:23:00,10.4,8.3,29.20,West,270,0.0,0.0,91,0.00,CLR,,0.00,WeatherDisplay:10.37,2013-12-23 05:23:00,
2013-12-22 23:28:00,10.2,8.1,29.20,West,270,0.0,0.0,91,0.00,CLR,,0.00,WeatherDisplay:10.37,2013-12-23 05:28:00,
2013-12-22 23:33:00,10.0,7.9,29.20,West,270,0.0,0.0,91,0.00,CLR,,0.00,WeatherDisplay:10.37,2013-12-23 05:33:00,
2013-12-22 23:38:00,9.9,7.8,29.20,West,270,0.0,0.0,91,0.00,CLR,,0.00,WeatherDisplay:10.37,2013-12-23 05:38:00,
2013-12-22 23:43:00,9.7,7.6,29.20,West,270,0.0,0.0,91,0.00,CLR,,0.00,WeatherDisplay:10.37,2013-12-23 05:43:00,
2013-12-22 23:48:00,9.5,7.4,29.20,West,270,0.0,0.0,91,0.00,CLR,,0.00,WeatherDisplay:10.37,2013-12-23 05:48:00,
2013-12-22 23:53:00,9.5,7.4,29.21,West,270,0.0,0.0,91,0.00,CLR,,0.00,WeatherDisplay:10.37,2013-12-23 05:53:00,
2013-12-22 23:58:00,9.5,7.4,29.20,West,270,0.0,0.0,91,0.00,CLR,,0.00,WeatherDisplay:10.37,2013-12-23 05:58:00,